Home   Weather   Wuhan   Past weeks

Flag for China Past Weather in Wuhan, Hubei, China — Yesterday and Last 2 Weeks

68 °F

Scattered clouds.

Feels Like: 68 °F
Forecast: 60 / 65 °F
Wind: 15 mph from Northeast

Location: Wuhan Airport

Current Time: Oct 22, 2016 at 4:58:03 PM

Latest Report: Oct 22, 2016 at 4:00 PM

Visibility: N/A

Pressure: 29.83 "Hg

Humidity: 83%

Dew Point: 63 °F

Location of WuhanLocation

Past Weather in Wuhan — Graph


Wuhan Temperature Yesterday

Maximum temperature yesterday: 79 °F (at 12:00 PM)
Minimum temperature yesterday: 66 °F (at 8:00 PM)
Average temperature yesterday: 71 °F

High & Low Weather Summary for the Past Weeks

High82 °F (Oct 7, 4:00 PM)100% (Oct 11, 9:00 PM)30.21 "Hg (Oct 11, 9:00 PM)
Low59 °F (Oct 13, 8:00 PM)36% (Oct 9, 5:00 PM)29.77 "Hg (Oct 21, 2:00 PM)
Average67 °F84%30.03 "Hg
* Reported Oct 7 3:00 PM — Oct 22 3:00 PM, Wuhan, Weather by CustomWeather, © 2016

Note: Actual official high and low records may vary slightly from our data, if they occured in-between our weather recording intervals... More about our weather records


Wuhan Weather History for the Previous 24 Hours

Scroll right to see more
Time TempWeatherWind HumidityBarometerVisibility
3:00 PM
Sat, Oct 22
70 °FScattered clouds.13 mph83%29.80 "HgN/A
2:00 PM68 °FScattered clouds.10 mph88%29.83 "HgN/A
1:00 PM68 °FScattered clouds.8 mph88%29.83 "HgN/A
12:00 PM68 °FLight rain. Passing clouds.10 mph88%29.83 "HgN/A
11:00 AM66 °FPassing clouds.13 mph94%29.86 "HgN/A
10:00 AM66 °FOvercast.10 mph88%29.86 "HgN/A
9:00 AM64 °FLight rain. Overcast.8 mph100%29.83 "HgN/A
8:00 AM64 °FLight rain. Overcast.6 mph100%29.83 "HgN/A
7:00 AM64 °FLight rain. Overcast.8 mph100%29.80 "HgN/A
6:00 AM64 °FRain. Mostly cloudy.8 mph100%29.80 "HgN/A
5:00 AM64 °FLight rain. Overcast.8 mph94%29.80 "HgN/A
4:00 AM64 °FMostly cloudy.8 mph94%29.77 "HgN/A
3:00 AM64 °FLight rain. Mostly cloudy.8 mph100%29.80 "Hg5 mi
2:00 AM66 °FLight rain. Mostly cloudy.10 mph94%29.80 "Hg5 mi
1:00 AM66 °FLight rain. Mostly cloudy.8 mph100%29.80 "Hg5 mi
12:00 AM66 °FMostly cloudy.8 mph100%29.83 "Hg5 mi
11:00 PM
Fri, Oct 21
66 °FMostly cloudy.8 mph100%29.83 "Hg5 mi
10:00 PM66 °FLight rain. Mostly cloudy.8 mph100%29.83 "Hg5 mi
9:00 PM68 °FPartly cloudy.8 mph94%29.83 "Hg5 mi
8:00 PM66 °FPartly cloudy.8 mph100%29.83 "Hg5 mi
7:00 PM68 °FLight rain. Partly cloudy.8 mph94%29.80 "Hg4 mi
6:00 PM68 °FLight rain. Partly cloudy.8 mph94%29.80 "Hg4 mi
5:00 PM70 °FScattered clouds.8 mph88%29.80 "Hg4 mi
4:00 PM73 °FScattered clouds.10 mph83%29.80 "HgN/A
Weather by CustomWeather, © 2016

See weather overviewHow to use our weather pages